Terminal Aerodrome Forecast
Issued by NWS Sterling, VA

Current Version | Previous Version | Graphics & Text | Print | Product List | Glossary On
Versions: 1 2 3 4 5 6 7 8 9 10 11 12 13 14 15 16 17 18 19 20 21 22 23 24
000
FTUS41 KLWX 180524
TAFDCA
TAF
KDCA 180524Z 1806/1906 19004KT P6SM SCT200
     FM181200 19005KT P6SM BKN150 WS020/21040KT
     FM181500 19007KT P6SM VCSH BKN100
     FM181700 19011G20KT P6SM VCSH OVC110
     FM190300 20017G26KT P6SM -SHRA OVC045=

USA.gov is the U.S. government's official web portal to all federal, state and local government web resources and services.